Location: P�rn�nmaa
(61.1833°N, 23.0000°E)
Time: 20:00:28
(UTC+00:00)

Cosmos 1980 - Pass Details

Date: 08 December 2019
Orbit: 838 x 848 km, 71.0° (Epoch: 17 January)

Event Time Altitude Azimuth Distance (km) Brightness Sun altitude
Rises 16:52:00 0° 202° (SSW) 3,385 7.2 -23.6°
Reaches altitude 10° 16:54:28 10° 199° (SSW) 2,455 6.4 -23.9°
Enters shadow 16:59:56 58° 123° (ESE) 977 3.7 -24.6°
